"Pseudo-MPEC" for C0Z6MR5

Created 2025 Jan 12 12:31:02 UT using Find_Orb

Click here for an explanation of pseudo-MPECs

 
 Astrometry: 
     C0Z6MR5  C2024 12 25.07368622 22 07.914-05 23 49.13FixDup   22.51GVNEOCPV00
     C0Z6MR5* C2024 12 25.07368622 22 07.914-05 23 49.13Duplicate22.51GVNEOCPV00
     C0Z6MR5  C2024 12 25.07931322 22 07.072-05 23 48.44   ~CPDH 22.90GVNEOCPV00
     C0Z6MR5  C2024 12 25.08491322 22 06.229-05 23 47.44   ~CPDH 21.98GVNEOCPV00

Station data:
(V00) Kitt Peak-Bok  (N31.963125 W111.600190)  US/Arizona.  Observers T. A.
   Pruyne, B. M. Africano, E. J. Christensen, G. A. Farneth, D. C. Fuls, A.
   R. Gibbs, A. D. Grauer, H. Gröller, J. A. Johnson, R. A. Kowalski, S. M.
   Larson, G. J. Leonard, D. Rankin, R. L. Seaman, F. C. Shelly, K. W.
   Wierzchoś. 2.25-m reflector + 4x4K mosaic CCD.

Orbital elements:  C0Z6MR5
   Perihelion 2025 Jan 29.59064 +/- 13.7 TT = 14:10:31 (JD 2460705.09064)
Epoch 2024 Dec 25.0 TT = JDT 2460669.5   Earth MOID: 0.0083   Ve: 0.0689
M 294.89110444 +/- 38               Me: 0.0595                   AutoNEOCP
n   1.82938228 +/- 1.04             Peri.  165.13768 +/- 34
a   0.66211445 +/- 0.25             Node    58.27601 +/- 23
e   0.8651031 +/- 0.18              Incl.   24.64062 +/- 60
P   0.539/196.784d         H 21.51  G  0.15   U 12.8  SR
q 0.08931715 +/- 0.277    Q 1.23491175 +/- 14.3           (J2000 ecliptic)
From 4 observations 2024 Dec. 25 (16.2 min); mean residual 0".05
Residuals in arcseconds: 
241225 V00  .01-  .03+    241225 V00  .03+  .11-    
241225 V00  .01-  .03+    241225 V00  .02-  .06+    

Ephemerides (geocentric):
Date (UTC) HH   RA             Dec           delta  r     elong  mag " sig PA
---- --------  ------------   ------------  ------ ------ -----  --- --------
2025 01 12 13  21 32 54.432   -06 28 24.27  .62239 .56274  32.0 23.5 986'  87
2025 01 12 14  21 32 45.835   -06 28 56.84  .62270 .56186  31.9 23.5 989'  87
2025 01 12 15  21 32 37.223   -06 29 29.57  .62302 .56097  31.9 23.5 992'  87
2025 01 12 16  21 32 28.596   -06 30 02.48  .62333 .56009  31.8 23.5 995'  87
2025 01 12 17  21 32 19.954   -06 30 35.55  .62365 .55920  31.7 23.5 998'  87
2025 01 12 18  21 32 11.297   -06 31 08.80  .62396 .55831  31.6 23.5  17d  87
2025 01 12 19  21 32 02.625   -06 31 42.22  .62428 .55742  31.6 23.5  17d  87
2025 01 12 20  21 31 53.937   -06 32 15.81  .62459 .55653  31.5 23.5  17d  87
2025 01 12 21  21 31 45.234   -06 32 49.57  .62491 .55564  31.4 23.5  17d  87
2025 01 12 22  21 31 36.516   -06 33 23.50  .62523 .55475  31.3 23.6  17d  87
2025 01 12 23  21 31 27.783   -06 33 57.61  .62554 .55385  31.3 23.6  17d  87
2025 01 13 00  21 31 19.034   -06 34 31.90  .62586 .55296  31.2 23.6  17d  87
2025 01 13 01  21 31 10.269   -06 35 06.36  .62618 .55206  31.1 23.6  17d  87
2025 01 13 02  21 31 01.490   -06 35 40.99  .62650 .55117  31.0 23.6  17d  87
2025 01 13 03  21 30 52.694   -06 36 15.80  .62682 .55027  31.0 23.6  17d  87
2025 01 13 04  21 30 43.883   -06 36 50.79  .62714 .54937  30.9 23.6  17d  87
2025 01 13 05  21 30 35.056   -06 37 25.96  .62746 .54847  30.8 23.6  17d  87
2025 01 13 06  21 30 26.214   -06 38 01.30  .62778 .54756  30.7 23.6  17d  87
2025 01 13 07  21 30 17.356   -06 38 36.82  .62810 .54666  30.6 23.6  17d  87
2025 01 13 08  21 30 08.482   -06 39 12.53  .62842 .54576  30.6 23.6  17d  87
2025 01 13 09  21 29 59.592   -06 39 48.41  .62874 .54485  30.5 23.6  17d  87
2025 01 13 10  21 29 50.687   -06 40 24.48  .62906 .54394  30.4 23.6  17d  87
2025 01 13 11  21 29 41.765   -06 41 00.72  .62939 .54303  30.3 23.6  17d  87
2025 01 13 12  21 29 32.828   -06 41 37.15  .62971 .54213  30.3 23.6  17d  87
2025 01 13 13  21 29 23.874   -06 42 13.77  .63004 .54121  30.2 23.6  18d  87
2025 01 13 14  21 29 14.905   -06 42 50.56  .63036 .54030  30.1 23.6  18d  87
2025 01 13 15  21 29 05.919   -06 43 27.55  .63069 .53939  30.0 23.6  18d  87
2025 01 13 16  21 28 56.917   -06 44 04.71  .63101 .53848  29.9 23.6  18d  87
2025 01 13 17  21 28 47.899   -06 44 42.07  .63134 .53756  29.9 23.6  18d  87
2025 01 13 18  21 28 38.865   -06 45 19.61  .63166 .53664  29.8 23.6  18d  87
2025 01 13 19  21 28 29.815   -06 45 57.33  .63199 .53573  29.7 23.6  18d  87
2025 01 13 20  21 28 20.748   -06 46 35.25  .63232 .53481  29.6 23.6  18d  87
2025 01 13 21  21 28 11.665   -06 47 13.35  .63265 .53389  29.6 23.6  18d  87
2025 01 13 22  21 28 02.565   -06 47 51.65  .63298 .53296  29.5 23.6  18d  87
2025 01 13 23  21 27 53.449   -06 48 30.13  .63331 .53204  29.4 23.6  18d  87
2025 01 14 00  21 27 44.316   -06 49 08.81  .63364 .53112  29.3 23.6  18d  87
2025 01 14 01  21 27 35.167   -06 49 47.67  .63397 .53019  29.2 23.6  18d  87
2025 01 14 02  21 27 26.001   -06 50 26.73  .63430 .52927  29.2 23.6  18d  87
2025 01 14 03  21 27 16.819   -06 51 05.99  .63463 .52834  29.1 23.6  18d  87
2025 01 14 04  21 27 07.620   -06 51 45.44  .63497 .52741  29.0 23.6  18d  87
2025 01 14 05  21 26 58.404   -06 52 25.08  .63530 .52648  28.9 23.6  18d  87
2025 01 14 06  21 26 49.171   -06 53 04.92  .63563 .52555  28.8 23.6  18d  87
2025 01 14 07  21 26 39.922   -06 53 44.95  .63597 .52461  28.8 23.6  18d  87
2025 01 14 08  21 26 30.656   -06 54 25.18  .63630 .52368  28.7 23.7  18d  87
2025 01 14 09  21 26 21.372   -06 55 05.61  .63664 .52274  28.6 23.7  18d  87
2025 01 14 10  21 26 12.072   -06 55 46.24  .63698 .52181  28.5 23.7  18d  87
2025 01 14 11  21 26 02.755   -06 56 27.06  .63731 .52087  28.4 23.7  18d  87
2025 01 14 12  21 25 53.421   -06 57 08.09  .63765 .51993  28.4 23.7  18d  87